SCP
0 0 0 0 0 0 0 0 0 0 0 0 0 0 0 0 0 0 0 0 0 0 0 0 0 0 0 0 0 0 0 0 0 0 0 0 0 0
0 0 0 0 0 0 0 0 0 0 0 0 0 0 0 0 0 0 0 0 0 0 0 0 0 0 0 0 0 0 0 0 0 0 0 0 0 0
0 0 0 0 0 0 0 0 0 0 0 0 0 0 0 0 0 0 0 0 0 0 0 0 0 0 0 0 0 0 0 0 0 0 0 0 0 0
0 0 0 0 0 0 0 0 0 0 0 0 0 0 0 0 0 0 0 0 0 0 0 -0 -0 0 0 0 0 0 0 0 0 0 0 0 0 0
0 0 0 0 0 0 0 0 0 0 0 0 0 0 0 0 0 0 0 0 -0 -0 -0 0 -0 0 0 0 0 0 0 0 0 0 0 0 0 0
0 0 0 0 0 0 0 0 0 0 0 0 0 0 0 0 0 0 0 0 0 0 0 0 0 0 0 0 0 0 0 0 0 0 0 0 0 0
0 0 0 0 0 0 0 0 0 0 0 -0 0 0 0 0 0 0 0 0 0 0 -0 0 0 0 0 0 0 0 0 0 0 0 0 0 0 0
0 0 0 -0 -0 -0 -0 -0 0 -0 -0 0 0 0 0 0 0 0 0 0 0 0 0 0 0 0 0 0 -0 0 0 0 0 0 0 0 0 0
-0 -0 -0 0 0 0 0 0 0 0 0 0 -0 -0 0 0 0 0 0 0 0 0 0 0 0 0 0 0 0 0 0 0 0 0 0 0 0 0
0 0 0 0 0 0 0 0 0 0 0 0 0 0 -0 -0 0 0 0 0 0 0 0 0 0 0 0 0 0 0 0 0 0 0 0 0 0 0
0 0 0 0 0 0 0 0 0 0 0 0 0 0 0 0 -0 0 -0 0 0 0 0 0 0 0 0 0 0 0 0 0 0 0 0 0 0 0
0 0 0 0 0 0 0 0 0 0 0 0 0 0 0 0 0 0 0 -0 0 0 0 0 0 0 0 0 0 0 0 0 0 0 0 0 0 0
0 0 0 0 0 0 0 0 0 0 0 0 0 0 0 0 0 0 0 0 -0 0 0 0 0 0 0 0 0 0 0 0 0 0 0 0 0 0
0 0 0 0 -0 0 -0 0 0 0 0 0 0 0 0 0 0 0 0 0 0 0 0 0 0 0 0 0 0 0 0 0 0 0 0 0 0 0
0 0 -0 -0 -0 0 -0 -0 -0 0 0 0 0 0 0 0 0 0 0 0 0 0 0 0 0 0 0 0 0 0 0 0 0 0 0 0 0 0
0 0 0 0 0 0 0 0 0 0 0 0 0 0 0 0 0 0 0 0 0 0 0 0 0 0 0 0 0 0 0 0 0 0 0 0 0 0
0 0 0 0 0 0 0 0 0 0 0 0 0 0 -0 -0 0 0 0 0 0 0 0 0 0 0 0 0 0 0 0 0 0 0 0 0 0 0
0 0 0 0 0 0 -0 0 0 0 0 0 0 -0 0 0 0 0 0 0 0 0 0 0 0 0 0 0 0 0 0 0 0 0 0 0 0 0
-0 -0 0 0 0 -0 -0 -0 0 0 0 0 -0 -0 0 0 0 0 0 0 0 0 0 0 0 0 0 0 0 0 0 0 0 0 0 0 0 0
0 -0 -0 0 0 0 -0 -0 0 0 0 0 0 0 0 0 0 0 0 0 0 0 0 0 0 0 0 0 0 0 0 0 0 0 0 0 0 0
-0 0 0 0 0 0 0 0 0 0 0 0 0 0 0 0 -0 0 0 0 0 0 0 0 0 0 0 0 0 0 0 0 0 0 0 0 0 0
0 0 0 0 0 0 0 0 0 0 0 0 0 0 0 0 -0 -0 0 0 0 0 0 0 0 0 0 0 0 0 0 0 0 0 0 0 0 0
0 0 0 0 0 0 0 0 0 0 0 0 0 0 0 0 0 0 -0 -0 0 0 0 0 0 0 0 0 0 0 0 0 0 0 0 0 0 0
Wind_Speed_500mb
61 64 68 67 64 67 72 75 77 79 76 58 61 57 52 47 48 61 63 62 83 84 94 96 82 95 113 113 107 101 101 101 101 104 104 95 92 84
63 64 64 64 65 67 70 71 68 74 80 72 68 63 63 57 53 54 56 60 67 85 77 95 103 94 105 118 116 112 107 101 103 107 109 103 97 90
68 69 71 71 75 77 75 77 76 76 77 83 71 71 54 53 65 56 61 66 65 61 72 84 71 98 104 124 130 124 117 111 108 108 111 108 100 97
72 70 72 71 73 72 72 76 77 80 77 88 76 68 70 64 68 77 66 68 73 77 83 81 93 65 81 84 120 129 124 120 118 115 115 113 108 105
72 72 73 73 77 78 79 80 77 76 75 76 89 83 78 66 59 65 77 74 79 80 72 74 82 80 71 111 89 115 131 125 112 128 126 124 119 110
67 69 71 72 72 73 77 80 75 67 64 61 68 79 74 77 71 71 74 84 91 87 77 75 75 76 76 62 88 92 106 122 123 122 121 128 122 117
81 85 90 95 98 100 99 106 99 87 76 65 71 64 65 71 74 75 73 75 82 86 83 75 74 71 90 86 89 50 97 112 121 120 139 139 119 111
85 88 91 88 81 78 79 87 100 106 97 81 79 69 70 51 61 69 71 76 84 85 75 73 74 69 69 81 81 80 63 102 117 118 124 123 114 115
86 83 84 79 73 74 73 73 75 77 85 92 99 95 80 71 46 46 62 70 60 71 69 68 54 61 60 66 70 86 83 84 97 112 120 116 130 120
65 66 67 69 71 75 78 81 83 81 77 78 84 93 110 108 87 47 36 38 55 59 65 56 48 53 59 61 61 72 71 78 86 105 112 117 134 120
69 69 69 70 68 63 72 81 82 79 78 80 76 75 72 70 99 105 84 54 38 50 58 48 43 46 44 49 52 50 60 55 107 105 110 121 128 126
77 70 71 72 71 73 65 69 76 78 77 76 76 85 75 74 76 79 103 79 69 49 49 47 43 38 27 32 40 50 45 71 99 100 111 122 134 118
74 77 70 67 65 67 66 74 72 64 67 69 70 71 70 74 73 73 85 94 89 73 48 49 48 43 38 20 28 29 42 66 78 90 126 127 117 105
70 68 67 60 56 52 56 68 70 64 72 79 72 72 69 73 73 65 62 93 97 82 54 58 44 44 48 30 34 38 42 56 69 93 104 101 97 93
55 49 49 52 48 43 46 53 57 68 78 79 70 67 64 58 51 48 54 65 60 59 57 40 31 31 49 50 47 56 61 60 63 73 78 78 87 87
46 40 32 31 31 34 38 40 42 50 61 63 68 60 56 51 50 44 57 49 53 47 44 31 32 36 44 54 52 61 65 59 68 66 70 68 67 64
38 34 31 31 29 27 27 23 17 12 26 39 48 45 50 46 45 43 49 51 53 47 41 42 38 40 41 46 50 61 69 64 67 73 69 68 65 61
35 42 42 33 37 31 33 17 8 9 16 24 32 32 25 31 47 46 42 44 44 41 48 45 46 46 35 32 36 54 63 62 64 69 67 65 62 57
46 49 47 47 34 30 30 31 14 5 10 17 24 17 33 28 40 36 30 35 47 46 48 50 48 48 46 44 35 41 58 65 66 68 62 60 60 59
48 53 53 45 45 35 31 28 27 23 14 9 16 34 23 21 19 22 28 30 40 48 52 45 46 46 45 53 41 48 51 59 62 65 66 61 55 45
44 46 46 48 44 39 34 33 29 23 16 17 22 20 16 13 17 19 25 29 36 45 50 46 39 40 36 33 39 49 46 45 53 61 63 58 52 50
41 43 42 42 45 45 38 31 33 34 28 22 17 16 20 23 26 30 33 38 42 50 49 47 41 38 31 34 47 58 57 51 46 43 51 59 59 50
36 38 41 42 41 39 43 41 34 33 29 25 16 16 20 25 27 29 36 38 39 41 42 40 39 39 38 35 46 56 54 48 44 48 49 48 39 39
Wind_Direction_500mb
272 272 271 272 273 272 273 272 273 283 281 283 276 273 272 290 287 281 278 277 258 255 253 244 237 241 236 236 235 231 230 228 221 219 218 219 215 211
274 274 275 275 276 275 272 272 271 269 269 270 272 272 267 272 289 286 281 280 278 255 256 250 251 243 235 236 237 233 230 226 224 220 219 216 213 211
275 275 276 277 275 274 275 275 273 271 277 276 272 265 278 274 267 287 287 283 283 272 264 257 256 248 240 234 235 232 231 227 222 221 218 214 212 210
274 272 272 272 272 272 272 271 273 273 273 274 274 270 263 266 270 268 283 283 278 279 277 259 263 266 243 242 233 232 229 229 226 220 217 213 212 212
275 274 273 271 270 269 269 269 270 270 270 272 273 271 269 267 265 266 262 274 282 279 279 275 264 260 259 240 250 230 228 230 232 222 218 213 212 214
274 271 269 266 264 263 263 262 266 271 272 271 271 269 266 267 266 267 269 269 271 275 275 279 266 253 244 247 241 251 236 229 230 230 217 219 214 213
271 268 269 268 269 268 267 266 266 267 268 273 267 271 264 258 258 263 263 267 266 268 273 274 272 258 246 241 244 257 243 226 228 227 219 213 212 220
285 286 283 280 276 270 267 264 261 263 263 261 260 264 259 258 258 257 261 265 267 263 268 273 271 257 258 240 246 246 259 238 223 225 223 214 214 218
287 284 284 280 276 274 271 267 264 260 257 259 258 255 258 247 247 261 260 260 269 264 261 271 274 258 261 250 245 247 258 241 228 221 222 220 217 214
293 290 286 284 279 272 268 266 265 263 261 258 256 258 257 255 247 252 280 271 266 266 252 259 262 259 245 244 240 244 252 237 233 224 219 216 214 215
303 294 292 290 288 283 266 264 267 266 260 254 255 260 260 256 252 250 253 268 282 257 246 246 258 258 248 239 240 241 245 241 227 223 223 214 214 213
301 293 291 287 285 278 273 269 265 263 261 260 256 253 253 254 254 247 249 251 256 279 245 239 243 245 233 228 221 223 231 221 209 222 226 211 209 202
300 297 295 291 286 279 269 264 265 264 260 258 259 260 256 258 252 250 245 243 248 255 262 238 239 238 229 200 196 202 201 205 205 192 201 200 201 196
303 298 294 289 289 284 270 265 263 259 257 255 256 255 253 250 254 248 248 237 244 247 260 249 244 240 228 206 173 178 188 195 200 193 185 183 188 193
321 306 295 291 290 291 287 277 268 260 253 245 246 247 251 254 253 245 233 224 230 243 244 222 227 247 234 232 215 186 178 184 190 189 187 188 191 195
333 327 328 323 322 310 305 300 281 270 252 248 234 242 242 242 239 230 221 206 207 229 240 231 228 225 234 230 224 201 193 184 190 191 191 197 204 209
359 355 356 356 339 333 355 332 328 248 223 215 220 230 231 229 230 226 211 210 215 222 219 217 220 228 233 232 204 204 200 199 201 202 204 205 207 210
16 18 14 13 17 10 31 39 60 124 178 202 207 213 235 241 207 209 215 215 208 209 205 210 212 207 205 196 215 204 200 199 199 203 205 206 205 210
31 29 30 28 20 29 39 57 95 133 192 199 206 204 195 197 189 198 195 206 206 210 201 203 204 205 191 177 183 202 207 200 200 202 209 211 214 214
36 34 29 31 34 38 44 48 64 100 126 160 162 197 197 211 202 183 199 201 198 193 191 199 200 198 201 190 173 185 200 209 206 204 205 211 216 220
33 38 40 33 38 46 53 59 61 58 64 89 123 148 168 169 171 183 186 187 189 186 182 182 189 190 200 199 185 171 178 203 216 210 206 208 204 201
48 43 43 46 43 43 52 61 68 71 72 83 105 130 139 152 157 165 171 169 172 180 178 175 180 190 197 199 190 181 181 187 194 197 197 196 189 191
43 51 52 51 52 50 54 56 66 71 73 72 89 109 126 138 148 155 161 168 174 171 172 166 167 177 181 188 186 182 182 180 178 180 185 190 202 213
Wind_Speed_850mb
61 64 68 67 64 67 72 75 77 79 76 58 61 57 52 47 48 61 63 62 83 84 94 96 82 95 113 113 107 101 101 101 101 104 104 95 92 84
63 64 64 64 65 67 70 71 68 74 80 72 68 63 63 57 53 54 56 60 67 85 77 95 103 94 105 118 116 112 107 101 103 107 109 103 97 90
68 69 71 71 75 77 75 77 76 76 77 83 71 71 54 53 65 56 61 66 65 61 72 84 71 98 104 124 130 124 117 111 108 108 111 108 100 97
72 70 72 71 73 72 72 76 77 80 77 88 76 68 70 64 68 77 66 68 73 77 83 81 93 65 81 84 120 129 124 120 118 115 115 113 108 105
72 72 73 73 77 78 79 80 77 76 75 76 89 83 78 66 59 65 77 74 79 80 72 74 82 80 71 111 89 115 131 125 112 128 126 124 119 110
67 69 71 72 72 73 77 80 75 67 64 61 68 79 74 77 71 71 74 84 91 87 77 75 75 76 76 62 88 92 106 122 123 122 121 128 122 117
81 85 90 95 98 100 99 106 99 87 76 65 71 64 65 71 74 75 73 75 82 86 83 75 74 71 90 86 89 50 97 112 121 120 139 139 119 111
85 88 91 88 81 78 79 87 100 106 97 81 79 69 70 51 61 69 71 76 84 85 75 73 74 69 69 81 81 80 63 102 117 118 124 123 114 115
86 83 84 79 73 74 73 73 75 77 85 92 99 95 80 71 46 46 62 70 60 71 69 68 54 61 60 66 70 86 83 84 97 112 120 116 130 120
65 66 67 69 71 75 78 81 83 81 77 78 84 93 110 108 87 47 36 38 55 59 65 56 48 53 59 61 61 72 71 78 86 105 112 117 134 120
69 69 69 70 68 63 72 81 82 79 78 80 76 75 72 70 99 105 84 54 38 50 58 48 43 46 44 49 52 50 60 55 107 105 110 121 128 126
77 70 71 72 71 73 65 69 76 78 77 76 76 85 75 74 76 79 103 79 69 49 49 47 43 38 27 32 40 50 45 71 99 100 111 122 134 118
74 77 70 67 65 67 66 74 72 64 67 69 70 71 70 74 73 73 85 94 89 73 48 49 48 43 38 20 28 29 42 66 78 90 126 127 117 105
70 68 67 60 56 52 56 68 70 64 72 79 72 72 69 73 73 65 62 93 97 82 54 58 44 44 48 30 34 38 42 56 69 93 104 101 97 93
55 49 49 52 48 43 46 53 57 68 78 79 70 67 64 58 51 48 54 65 60 59 57 40 31 31 49 50 47 56 61 60 63 73 78 78 87 87
46 40 32 31 31 34 38 40 42 50 61 63 68 60 56 51 50 44 57 49 53 47 44 31 32 36 44 54 52 61 65 59 68 66 70 68 67 64
38 34 31 31 29 27 27 23 17 12 26 39 48 45 50 46 45 43 49 51 53 47 41 42 38 40 41 46 50 61 69 64 67 73 69 68 65 61
35 42 42 33 37 31 33 17 8 9 16 24 32 32 25 31 47 46 42 44 44 41 48 45 46 46 35 32 36 54 63 62 64 69 67 65 62 57
46 49 47 47 34 30 30 31 14 5 10 17 24 17 33 28 40 36 30 35 47 46 48 50 48 48 46 44 35 41 58 65 66 68 62 60 60 59
48 53 53 45 45 35 31 28 27 23 14 9 16 34 23 21 19 22 28 30 40 48 52 45 46 46 45 53 41 48 51 59 62 65 66 61 55 45
44 46 46 48 44 39 34 33 29 23 16 17 22 20 16 13 17 19 25 29 36 45 50 46 39 40 36 33 39 49 46 45 53 61 63 58 52 50
41 43 42 42 45 45 38 31 33 34 28 22 17 16 20 23 26 30 33 38 42 50 49 47 41 38 31 34 47 58 57 51 46 43 51 59 59 50
36 38 41 42 41 39 43 41 34 33 29 25 16 16 20 25 27 29 36 38 39 41 42 40 39 39 38 35 46 56 54 48 44 48 49 48 39 39
Wind_Direction_850mb
272 272 271 272 273 272 273 272 273 283 281 283 276 273 272 290 287 281 278 277 258 255 253 244 237 241 236 236 235 231 230 228 221 219 218 219 215 211
274 274 275 275 276 275 272 272 271 269 269 270 272 272 267 272 289 286 281 280 278 255 256 250 251 243 235 236 237 233 230 226 224 220 219 216 213 211
275 275 276 277 275 274 275 275 273 271 277 276 272 265 278 274 267 287 287 283 283 272 264 257 256 248 240 234 235 232 231 227 222 221 218 214 212 210
274 272 272 272 272 272 272 271 273 273 273 274 274 270 263 266 270 268 283 283 278 279 277 259 263 266 243 242 233 232 229 229 226 220 217 213 212 212
275 274 273 271 270 269 269 269 270 270 270 272 273 271 269 267 265 266 262 274 282 279 279 275 264 260 259 240 250 230 228 230 232 222 218 213 212 214
274 271 269 266 264 263 263 262 266 271 272 271 271 269 266 267 266 267 269 269 271 275 275 279 266 253 244 247 241 251 236 229 230 230 217 219 214 213
271 268 269 268 269 268 267 266 266 267 268 273 267 271 264 258 258 263 263 267 266 268 273 274 272 258 246 241 244 257 243 226 228 227 219 213 212 220
285 286 283 280 276 270 267 264 261 263 263 261 260 264 259 258 258 257 261 265 267 263 268 273 271 257 258 240 246 246 259 238 223 225 223 214 214 218
287 284 284 280 276 274 271 267 264 260 257 259 258 255 258 247 247 261 260 260 269 264 261 271 274 258 261 250 245 247 258 241 228 221 222 220 217 214
293 290 286 284 279 272 268 266 265 263 261 258 256 258 257 255 247 252 280 271 266 266 252 259 262 259 245 244 240 244 252 237 233 224 219 216 214 215
303 294 292 290 288 283 266 264 267 266 260 254 255 260 260 256 252 250 253 268 282 257 246 246 258 258 248 239 240 241 245 241 227 223 223 214 214 213
301 293 291 287 285 278 273 269 265 263 261 260 256 253 253 254 254 247 249 251 256 279 245 239 243 245 233 228 221 223 231 221 209 222 226 211 209 202
300 297 295 291 286 279 269 264 265 264 260 258 259 260 256 258 252 250 245 243 248 255 262 238 239 238 229 200 196 202 201 205 205 192 201 200 201 196
303 298 294 289 289 284 270 265 263 259 257 255 256 255 253 250 254 248 248 237 244 247 260 249 244 240 228 206 173 178 188 195 200 193 185 183 188 193
321 306 295 291 290 291 287 277 268 260 253 245 246 247 251 254 253 245 233 224 230 243 244 222 227 247 234 232 215 186 178 184 190 189 187 188 191 195
333 327 328 323 322 310 305 300 281 270 252 248 234 242 242 242 239 230 221 206 207 229 240 231 228 225 234 230 224 201 193 184 190 191 191 197 204 209
359 355 356 356 339 333 355 332 328 248 223 215 220 230 231 229 230 226 211 210 215 222 219 217 220 228 233 232 204 204 200 199 201 202 204 205 207 210
16 18 14 13 17 10 31 39 60 124 178 202 207 213 235 241 207 209 215 215 208 209 205 210 212 207 205 196 215 204 200 199 199 203 205 206 205 210
31 29 30 28 20 29 39 57 95 133 192 199 206 204 195 197 189 198 195 206 206 210 201 203 204 205 191 177 183 202 207 200 200 202 209 211 214 214
36 34 29 31 34 38 44 48 64 100 126 160 162 197 197 211 202 183 199 201 198 193 191 199 200 198 201 190 173 185 200 209 206 204 205 211 216 220
33 38 40 33 38 46 53 59 61 58 64 89 123 148 168 169 171 183 186 187 189 186 182 182 189 190 200 199 185 171 178 203 216 210 206 208 204 201
48 43 43 46 43 43 52 61 68 71 72 83 105 130 139 152 157 165 171 169 172 180 178 175 180 190 197 199 190 181 181 187 194 197 197 196 189 191
43 51 52 51 52 50 54 56 66 71 73 72 89 109 126 138 148 155 161 168 174 171 172 166 167 177 181 188 186 182 182 180 178 180 185 190 202 213